Location: Hains Lake
(37.8540°N, 99.8578°W)
Time: 08:32:13
(UTC+00:00)

Cosmos 2221 Rocket - Pass Details

Date: 11 December 2019
Orbit: 621 x 647 km, 82.5° (Epoch: 28 January)

Event Time Altitude Azimuth Distance (km) Brightness Sun altitude
Exits shadow 12:35:22 - 349° (N) 2,922 6.7 -13.3°
Rises 12:35:24 0° 349° (N) 2,906 6.7 -13.3°
Reaches altitude 10° 12:37:39 10° 347° (NNW) 1,996 5.9 -12.9°
Maximum altitude 12:42:01 67° 266° (W) 678 3.5 -12.1°
Drops below altitude 10° 12:46:23 10° 183° (S) 1,987 6.4 -11.3°
Sets 12:48:37 0° 181° (S) 2,891 7.3 -10.9°
